Regional Weather Roundup
Issued by NWS Charleston, SC

Home | Current Version | Previous Version | Text Only | Print | Product List | Glossary On
Versions: 1 2 3 4 5 6 7 8 9 10 11 12 13 14 15 16 17 18 19 20 21 22 23 24 25 26 27 28 29 30 31 32 33 34 35 36 37 38 39 40 41 42 43 44 45 46 47 48 49 50
000
ASUS42 KCHS 261828
RWRCHS

REGIONAL WEATHER ROUNDUP
NATIONAL WEATHER SERVICE CHARLESTON SC
200 PM EDT THU MAY 26 2016

NOTE: "FAIR" INDICATES FEW OR NO CLOUDS BELOW 12,000 FEET WITH NO
SIGNIFICANT WEATHER AND/OR OBSTRUCTIONS TO VISIBILITY.

NOT ALL STATIONS ARE QUALITY CONTROLLED. USE DATA WITH CAUTION...
ESPECIALLY DEWPOINT OBSERVATIONS.

SCZ027-030-031-034>040-042>050-261900-
...SOUTHEAST SOUTH CAROLINA...

CITY           SKY/WX    TMP DP  RH WIND       PRES   REMARKS
N CHARLESTON   MOSUNNY   84  62  47 S7        30.17F
6HR MIN TEMP:  74; 6HR MAX TEMP:  87;

WATERFRONT PRK   N/A     79  66  64 S6        30.16F
MOUNT PLEASANT FAIR      82  66  57 S13       30.18F
JOHNS ISLAND   FAIR      82  66  57 S9        30.18F
PINOPOLIS      NOT AVBL
MONCKS CORNER  FAIR      84  54  34 S3        30.15F HAZE
SUMMERVILLE    FAIR      88  63  42 S3        30.17F
BEAUFORT MCAS  MOSUNNY   85  65  51 SE3       30.18F
BEAUFORT ARPT  FAIR      82  63  51 S5        30.18S
HILTON HEAD IS MOSUNNY   86  66  51 S8        30.20F
WALTERBORO     MOCLDY    88  61  40 SE9       30.17F
ALLENDALE      FAIR      86  63  45 S6        30.16F

...SOUTHERN MIDLANDS AND PEE DEE...

CITY           SKY/WX    TMP DP  RH WIND       PRES   REMARKS
GEORGETOWN     FAIR      82  63  51 S8        30.18F
KINGSTREE      FAIR      86  61  42 S8        30.16F
ORANGEBURG     SUNNY     86  62  44 S9        30.16F
6HR MIN TEMP:  67; 6HR MAX TEMP:  87;

BARNWELL       MOCLDY    90  63  40 S8        30.17S HX  90
AIKEN          FAIR      86  59  39 S8        30.19F
MANNING        FAIR      82  63  51 SW3       30.16F
COLUMBIA       PTSUNNY   87  58  37 SW7       30.15F
6HR MIN TEMP:  71; 6HR MAX TEMP:  89;

SUMTER         MOSUNNY   87  62  42 VRB5      30.14F
6HR MIN TEMP:  71; 6HR MAX TEMP:  87;

FLORENCE       MOSUNNY   87  62  43 S9        30.16F
6HR MIN TEMP:  70; 6HR MAX TEMP:  87;

MYRTLE BEACH   MOSUNNY   82  63  51 S13       30.20F
N MYRTLE BEACH MOSUNNY   80  68  66 S14       30.18F
6HR MIN TEMP:  75; 6HR MAX TEMP:  80;


$$

GAZ063-065-086>088-099>101-113>116-118-119-134>141-150-261900-
...SOUTHEAST GEORGIA...

CITY           SKY/WX    TMP DP  RH WIND       PRES   REMARKS
SAVANNAH ARPT  MOSUNNY   87  63  44 SE13      30.17F
6HR MIN TEMP:  73; 6HR MAX TEMP:  87;

HUNTER AAF     MOSUNNY   83  66  56 SE9       30.16F
6HR MIN TEMP:  74; 6HR MAX TEMP:  84;

FORT STEWART   PTSUNNY   85  62  45 VRB1      30.15F
6HR MIN TEMP:  70; 6HR MAX TEMP:  86;

STATESBORO     SUNNY     87  66  48 SW8       30.16F
SYLVANIA       CLOUDY    86  64  46 S3        30.18F
CLAXTON        MOCLDY    86  64  47 S3        30.17F

...CSRA...CENTRAL AND FAR SOUTHEAST GEORGIA...

CITY           SKY/WX    TMP DP  RH WIND       PRES   REMARKS
THOMSON        CLOUDY    90  65  44 W6        30.19F HX  92
AUGUSTA-BUSH   SUNNY     88  61  40 S10       30.14F
6HR MIN TEMP:  66; 6HR MAX TEMP:  88;

AUGUSTA-DANIEL MOSUNNY   88  59  37 VRB3      30.16F
SWAINSBORO     FAIR      86  57  37 SE5       30.17F
VIDALIA        SUNNY     86  59  39 SW5       30.17S
EASTMAN        FAIR      87  62  43 NE3       30.18F
HAZLEHURST     FAIR      88  58  35 CALM      30.15F
ALMA           MOSUNNY   85  61  44 SE3       30.16F
6HR MIN TEMP:  68; 6HR MAX TEMP:  86;

WAYCROSS       PTSUNNY   86  61  43 E3        30.15F
JESUP          FAIR      82  59  44 E6        30.16F
BAXLEY         PTSUNNY   86  59  39 SE6       30.16F
BRUNSWICK      SUNNY     88  59  37 E3        30.18F
SAINT SIMONS   SUNNY     81  65  58 E6        30.18S
6HR MIN TEMP:  77; 6HR MAX TEMP:  81;


$$

SCZ027-028-034-036>038-045-046-048>050-GAZ119-141-261900-
...LAKE AND SUPPLEMENTAL COASTAL OBSERVATIONS...

STATION/POSITION TIME  TEMP    WIND        PRES    WAVE   SWELL
                       AIR SEA DIR/SP/G            HT/PER HT/PER/DIR
                 (UTC) (F)     (DEG/KT/KT) (MB)    (FT/S) (FT/S/D)
WINYAH BAY       1700   79     170/ 10     1022.0
LAKE MURRAY      1700   86     180/  2/  3 1021.0F
ACE BASIN NERRS  1700   82     160/  1     1023.0S
FORT PULASKI     1800   79 76  180/  4/  7 1022.6F
SAPELO ISLAND    1800   85     120/  6     1022.0S

$$

ANZ835-935-AMZ111-154-330-350-352-354-370-450-454-472-261900-
...C-MAN AND BUOY OBSERVATIONS...

STATION/POSITION TIME  TEMP    WIND        PRES    WAVE   SWELL
                       AIR SEA DIR/SP/G            HT/PER HT/PER/DIR
                 (UTC) (F)     (DEG/KT/KT) (MB)    (FT/S) (FT/S/D)
BUOY 41004       1750   77 78  290/  2/  4 1022.4F   2/ 9   2/ 9
BUOY 41008       1750   76 78  100/  6/  8 1022.0F   2/ 9   2/120/ 9
FOLLY BEACH CMAN 1800   78     180/  7/  8 1022.5F
CAPERS NEARSHORE 1808   77 77  190/  8/ 10 1022.2F
FRIPP NEARSHORE  1808   77 78  160/  6/  8 1021.4F


STATION/POSITION TIME  TEMP    WIND        PRES    WAVE   SWELL
                       AIR SEA DIR/SP/G            HT/PER HT/PER/DIR
                 (UTC) (F)     (DEG/KT/KT) (MB)    (FT/S) (FT/S/D)
5E ST. MARYS GA  NOT AVBL
FRYING PAN BUOY  1800   77 78  190/  4/  6 1022.3F
BUOY 41025       1750   74 71  210/  6/  8 1021.9F   2/ 9   2/120/ 9
CAPE LOOKOUT NC  1800   78     210/  9/ 13 1021.9F
BUOY 41002       1750   76 78   60/ 14/ 17 1022.1F   3/ 7   2/110/ 7
BUOY 41010       1720   76 79   60/ 10/ 12 1020.5F
ST AUGUSTINE FL  1800   77 80   80/  8/  9 1022.4F


$$




USA.gov is the U.S. government's official web portal to all federal, state and local government web resources and services.